Total_Precipitation_Accumulation
0.21 0.16 0.14 0.14 0.14 0.15 0.20 0.27 0.43 0.49 0.48 0.49 0.53 0.56 0.58 0.62 0.60 0.50 0.40 0.32 0.29 0.28 0.26 0.31 0.32 0.31 0.30 0.27 0.30 0.33 0.32 0.34 0.39 0.40 0.39 0.35 0.36 0.35 0.35 0.35 0.33 0.29 0.26 0.28
0.16 0.13 0.12 0.10 0.09 0.12 0.16 0.20 0.29 0.30 0.30 0.27 0.25 0.22 0.21 0.24 0.29 0.26 0.23 0.21 0.21 0.22 0.23 0.26 0.26 0.24 0.24 0.23 0.22 0.23 0.23 0.23 0.30 0.36 0.37 0.38 0.34 0.31 0.30 0.31 0.30 0.28 0.25 0.25
0.17 0.12 0.16 0.14 0.08 0.10 0.14 0.14 0.17 0.22 0.25 0.25 0.19 0.15 0.13 0.12 0.13 0.14 0.16 0.17 0.17 0.18 0.23 0.27 0.26 0.26 0.26 0.24 0.21 0.20 0.21 0.24 0.29 0.31 0.28 0.31 0.31 0.26 0.22 0.24 0.25 0.25 0.25 0.25
0.27 0.24 0.27 0.13 0.06 0.06 0.08 0.09 0.12 0.15 0.16 0.17 0.15 0.14 0.13 0.11 0.11 0.12 0.12 0.14 0.16 0.16 0.19 0.25 0.28 0.29 0.30 0.28 0.25 0.23 0.22 0.24 0.27 0.27 0.27 0.25 0.26 0.23 0.19 0.21 0.23 0.24 0.30 0.30
0.40 0.32 0.18 0.09 0.08 0.07 0.06 0.07 0.09 0.09 0.08 0.07 0.09 0.12 0.11 0.09 0.08 0.09 0.09 0.10 0.11 0.14 0.19 0.24 0.27 0.32 0.33 0.29 0.28 0.27 0.25 0.24 0.24 0.24 0.26 0.25 0.22 0.20 0.19 0.22 0.24 0.24 0.25 0.27
0.47 0.41 0.25 0.12 0.07 0.07 0.07 0.11 0.11 0.09 0.08 0.07 0.09 0.13 0.10 0.08 0.07 0.07 0.08 0.08 0.09 0.10 0.15 0.21 0.28 0.32 0.34 0.35 0.29 0.26 0.26 0.26 0.26 0.23 0.22 0.24 0.23 0.22 0.21 0.24 0.26 0.26 0.25 0.23
0.42 0.39 0.20 0.09 0.07 0.09 0.15 0.16 0.12 0.11 0.10 0.10 0.10 0.10 0.09 0.07 0.05 0.06 0.07 0.07 0.08 0.10 0.12 0.17 0.27 0.31 0.37 0.37 0.27 0.25 0.29 0.32 0.33 0.29 0.27 0.30 0.31 0.29 0.27 0.27 0.29 0.29 0.27 0.25
0.38 0.40 0.25 0.10 0.12 0.17 0.19 0.12 0.09 0.09 0.09 0.09 0.09 0.08 0.06 0.06 0.06 0.07 0.08 0.08 0.08 0.09 0.11 0.13 0.23 0.31 0.35 0.37 0.35 0.33 0.33 0.35 0.36 0.36 0.35 0.36 0.37 0.37 0.36 0.34 0.35 0.36 0.36 0.33
0.32 0.25 0.16 0.12 0.16 0.17 0.15 0.13 0.10 0.09 0.09 0.09 0.08 0.07 0.06 0.06 0.06 0.06 0.08 0.08 0.08 0.09 0.10 0.13 0.20 0.27 0.32 0.36 0.39 0.36 0.36 0.36 0.37 0.39 0.39 0.38 0.39 0.40 0.40 0.36 0.34 0.36 0.38 0.38
0.30 0.18 0.16 0.17 0.16 0.17 0.16 0.12 0.09 0.08 0.08 0.09 0.08 0.08 0.07 0.06 0.06 0.06 0.08 0.09 0.09 0.10 0.10 0.12 0.19 0.27 0.38 0.40 0.37 0.38 0.38 0.40 0.39 0.38 0.38 0.38 0.38 0.38 0.36 0.35 0.33 0.34 0.38 0.38
0.35 0.25 0.23 0.22 0.20 0.18 0.16 0.11 0.08 0.06 0.06 0.08 0.08 0.07 0.08 0.08 0.06 0.06 0.07 0.09 0.11 0.11 0.12 0.14 0.19 0.27 0.37 0.38 0.37 0.39 0.40 0.40 0.39 0.37 0.34 0.34 0.35 0.35 0.35 0.33 0.36 0.38 0.40 0.43
0.45 0.31 0.30 0.26 0.20 0.17 0.16 0.13 0.08 0.06 0.06 0.06 0.07 0.08 0.10 0.10 0.08 0.07 0.07 0.08 0.12 0.13 0.13 0.15 0.18 0.23 0.30 0.35 0.37 0.38 0.38 0.38 0.36 0.37 0.35 0.32 0.32 0.35 0.39 0.41 0.43 0.38 0.38 0.39
0.41 0.32 0.26 0.22 0.20 0.21 0.20 0.18 0.12 0.08 0.07 0.07 0.07 0.09 0.12 0.11 0.09 0.09 0.10 0.10 0.12 0.15 0.15 0.17 0.20 0.24 0.28 0.32 0.36 0.39 0.38 0.36 0.35 0.37 0.37 0.35 0.35 0.36 0.37 0.37 0.36 0.33 0.32 0.32
0.28 0.30 0.28 0.22 0.22 0.23 0.21 0.19 0.13 0.09 0.07 0.08 0.09 0.10 0.13 0.12 0.11 0.11 0.13 0.12 0.13 0.16 0.15 0.16 0.18 0.24 0.30 0.32 0.33 0.41 0.48 0.51 0.46 0.41 0.41 0.42 0.42 0.39 0.37 0.37 0.37 0.34 0.30 0.29
0.20 0.24 0.26 0.23 0.20 0.17 0.17 0.15 0.13 0.10 0.09 0.09 0.09 0.11 0.15 0.15 0.15 0.14 0.13 0.13 0.14 0.16 0.16 0.15 0.16 0.20 0.26 0.30 0.32 0.38 0.45 0.49 0.51 0.49 0.46 0.44 0.42 0.39 0.37 0.35 0.35 0.37 0.36 0.35
0.19 0.18 0.20 0.23 0.19 0.15 0.15 0.16 0.17 0.15 0.11 0.11 0.11 0.11 0.16 0.16 0.15 0.16 0.15 0.15 0.15 0.16 0.17 0.19 0.19 0.20 0.23 0.27 0.31 0.35 0.40 0.46 0.49 0.47 0.47 0.47 0.44 0.41 0.42 0.40 0.40 0.41 0.37 0.39
0.23 0.22 0.24 0.28 0.23 0.18 0.18 0.20 0.22 0.17 0.12 0.10 0.11 0.12 0.15 0.20 0.20 0.19 0.18 0.18 0.16 0.16 0.17 0.18 0.21 0.22 0.24 0.29 0.35 0.37 0.37 0.40 0.45 0.44 0.44 0.46 0.49 0.48 0.49 0.47 0.45 0.45 0.46 0.49
0.25 0.25 0.27 0.29 0.27 0.29 0.30 0.27 0.24 0.17 0.12 0.11 0.11 0.12 0.15 0.18 0.21 0.22 0.21 0.20 0.18 0.18 0.19 0.19 0.20 0.23 0.24 0.30 0.35 0.38 0.41 0.39 0.39 0.41 0.42 0.43 0.46 0.46 0.47 0.45 0.44 0.46 0.49 0.52
0.18 0.20 0.22 0.25 0.28 0.34 0.32 0.28 0.26 0.18 0.13 0.14 0.15 0.14 0.14 0.16 0.18 0.18 0.19 0.21 0.21 0.20 0.20 0.20 0.23 0.23 0.25 0.31 0.34 0.36 0.41 0.42 0.42 0.41 0.39 0.43 0.43 0.42 0.45 0.46 0.47 0.48 0.48 0.48
0.18 0.20 0.24 0.26 0.28 0.28 0.30 0.27 0.21 0.18 0.14 0.15 0.17 0.16 0.15 0.17 0.16 0.17 0.18 0.20 0.20 0.21 0.22 0.23 0.22 0.22 0.27 0.29 0.31 0.30 0.37 0.41 0.40 0.39 0.40 0.39 0.38 0.39 0.41 0.43 0.42 0.44 0.46 0.46
0.23 0.25 0.27 0.30 0.29 0.26 0.30 0.31 0.24 0.20 0.17 0.18 0.19 0.20 0.19 0.19 0.18 0.19 0.19 0.18 0.17 0.17 0.19 0.26 0.24 0.23 0.27 0.32 0.33 0.30 0.32 0.36 0.38 0.39 0.41 0.42 0.41 0.42 0.42 0.42 0.41 0.41 0.42 0.43
0.27 0.28 0.30 0.32 0.32 0.29 0.30 0.36 0.33 0.26 0.21 0.22 0.21 0.22 0.23 0.23 0.21 0.21 0.20 0.21 0.21 0.21 0.20 0.22 0.23 0.28 0.34 0.37 0.31 0.32 0.33 0.34 0.37 0.39 0.41 0.42 0.43 0.43 0.42 0.44 0.44 0.42 0.44 0.48
0.31 0.32 0.33 0.34 0.36 0.35 0.31 0.34 0.35 0.27 0.24 0.26 0.25 0.26 0.28 0.29 0.27 0.26 0.25 0.24 0.24 0.25 0.23 0.24 0.29 0.36 0.42 0.37 0.32 0.32 0.32 0.33 0.33 0.34 0.36 0.38 0.39 0.42 0.43 0.43 0.44 0.44 0.46 0.49
0.32 0.34 0.36 0.37 0.39 0.37 0.37 0.38 0.36 0.31 0.29 0.30 0.30 0.29 0.30 0.33 0.32 0.30 0.30 0.33 0.33 0.31 0.28 0.28 0.32 0.38 0.42 0.35 0.36 0.35 0.31 0.31 0.33 0.34 0.34 0.35 0.38 0.40 0.42 0.41 0.42 0.43 0.45 0.49
0.36 0.37 0.39 0.40 0.42 0.42 0.45 0.45 0.42 0.39 0.36 0.36 0.36 0.34 0.34 0.37 0.42 0.41 0.38 0.37 0.39 0.38 0.32 0.33 0.38 0.39 0.36 0.36 0.38 0.38 0.38 0.38 0.40 0.40 0.40 0.40 0.40 0.40 0.40 0.40 0.40 0.43 0.46 0.52
0.36 0.40 0.43 0.44 0.45 0.45 0.47 0.48 0.49 0.47 0.45 0.44 0.42 0.39 0.39 0.41 0.45 0.46 0.47 0.46 0.46 0.45 0.40 0.40 0.41 0.41 0.40 0.42 0.44 0.42 0.41 0.44 0.47 0.46 0.45 0.46 0.45 0.46 0.48 0.48 0.48 0.50 0.52 0.57
0.32 0.37 0.38 0.39 0.41 0.42 0.44 0.47 0.52 0.53 0.52 0.53 0.51 0.47 0.46 0.49 0.50 0.49 0.49 0.52 0.53 0.52 0.52 0.52 0.52 0.53 0.53 0.54 0.54 0.53 0.49 0.46 0.46 0.46 0.48 0.50 0.51 0.52 0.53 0.55 0.59 0.61 0.62 0.63